Location: Acequia del Cap
(41.7000°N, 0.6167°E)
Time: 16:22:45
(UTC+00:00)

NOSS 2-3 (E) - Pass Details

Date: 07 August 2020
Orbit: 572 x 1639 km, 63.4° (Epoch: 21 September)

Event Time Altitude Azimuth Distance (km) Brightness Sun altitude
Exits shadow 03:58:05 15° 243° (WSW) 1,628 5.1 -10.7°
Maximum altitude 04:01:21 44° 313° (NW) 881 4.2 -10.2°
Drops below altitude 10° 04:06:04 10° 26° (NNE) 2,230 7.4 -9.5°
Sets 04:08:48 0° 32° (NNE) 3,306 8.6 -9.0°
